This is the latest recevied weather packets stored in our database for station/object KE8WAY. If no packets are shown the sender has not sent any weather packets the latest 10 day(s).
| Time | Temp. | Humidity | Pressure | Rain* | Wind** | Luminosity | Snow |
|---|---|---|---|---|---|---|---|
| 1777963297 | 16.11° C | 71% | 1001 hPa | 0 mm | - | 0 W/m² | - |
| 1777962994 | 16.67° C | 70% | 1001.2 hPa | 0 mm | - | 0 W/m² | - |
| 1777962690 | 16.67° C | 70% | 1001.5 hPa | 0 mm | - | 0 W/m² | - |
| 1777962386 | 16.67° C | 69% | 1001.5 hPa | 0 mm | - | 0 W/m² | - |
| 1777962084 | 16.67° C | 69% | 1001.4 hPa | 0 mm | - | 0 W/m² | - |
| 1777961781 | 17.22° C | 68% | 1001.7 hPa | 0 mm | - | 0 W/m² | - |
| 1777961479 | 17.78° C | 66% | 1001.5 hPa | 0 mm | - | 0 W/m² | - |
| 1777961176 | 17.78° C | 65% | 1001.4 hPa | 0 mm | - | 0 W/m² | - |
| 1777960873 | 17.78° C | 65% | 1001.6 hPa | 0 mm | - | 0 W/m² | - |
| 1777960568 | 17.78° C | 64% | 1001.8 hPa | 0 mm | - | 0 W/m² | - |
| 1777960265 | 18.33° C | 63% | 1001.6 hPa | 0 mm | - | 0 W/m² | - |
| 1777959962 | 18.33° C | 62% | 1001.6 hPa | 0 mm | - | 0 W/m² | - |
| 1777959661 | 18.89° C | 61% | 1002.1 hPa | 0 mm | - | 0 W/m² | - |
| 1777959357 | 18.89° C | 61% | 1002 hPa | 0 mm | - | 0 W/m² | - |
| 1777959054 | 18.89° C | 63% | 1002 hPa | 0 mm | - | 0 W/m² | - |
| 1777958750 | 18.89° C | 62% | 1002 hPa | 0 mm | - | 0 W/m² | - |
| 1777958448 | 19.44° C | 61% | 1002 hPa | 0 mm | - | 0 W/m² | - |
| 1777958145 | 19.44° C | 59% | 1001.7 hPa | 0 mm | - | 0 W/m² | - |
| 1777957843 | 19.44° C | 60% | 1001.8 hPa | 0 mm | - | 0 W/m² | - |
| 1777957541 | 20° C | 59% | 1000.8 hPa | 0 mm | - | 0 W/m² | - |
| 1777957239 | 20° C | 57% | 1000.6 hPa | 0 mm | - | 0 W/m² | - |
| 1777956934 | 20° C | 59% | 1000.8 hPa | 0 mm | - | 0 W/m² | - |
| 1777956632 | 19.44° C | 59% | 1000.6 hPa | 0 mm | - | 0 W/m² | - |
| 1777956329 | 19.44° C | 60% | 1000.6 hPa | 0 mm | - | 0 W/m² | - |
| 1777956025 | 19.44° C | 60% | 1000.6 hPa | 0 mm | - | 0 W/m² | - |
* Rain latest hour (hover to see other rain measurements)
** Current wind speed in m/s (hover to see current wind gust speed)